Other Public Products
Issued by NWS Grand Forks, ND

Home | Current Version | Previous Version | Graphics & Text | Print | Product List | Glossary On
Versions: 1 2 3 4 5 6 7 8 9 10 11 12 13 14 15 16 17 18 19 20 21 22 23 24 25 26 27 28 29 30 31 32 33 34 35 36 37 38 39 40 41 42 43 44 45 46 47 48 49 50
000
FPUS83 KFGF 122331
OPUFGF
PRAIRIE TO PINES WEATHER ROUNDUP
NATIONAL WEATHER SERVICE EASTERN NORTH DAKOTA/GRAND FORKS ND
500 PM CST TUE DEC 12 2017

 **SATELLITE DATA USED TO AUGMENT SKY COVER AT AUTOMATED STATIONS**
 *****  WEATHER ACROSS EASTERN NORTH DAKOTA  *****

CITY           SKY/WX    TMP DP  RH WIND       PRES   REMARKS
GRAND FORKS    FAIR      32  29  88 S10       29.64F WCI  24
GRND FORKS AFB FAIR      34  29  80 S9        29.63F
GRND FORKS NWS   N/A     32 N/A N/A S6          N/A
BUXTON           N/A     33  31  92 S6          N/A
DEVILS LAKE    FAIR      36  29  75 SW6       29.63F
FARGO          FAIR      34  29  82 S9        29.70F
WAHPETON ARPT  FAIR      32  27  80 S8        29.73F WCI  25
$$

 *****  WEATHER ACROSS CENTRAL AND WESTERN NORTH DAKOTA  *****

CITY           SKY/WX    TMP DP  RH WIND       PRES   REMARKS
JAMESTOWN      FAIR      38  29  70 SW12      29.68F
BISMARCK       FAIR      49  25  39 W12       29.73F
MINOT          FAIR      47  23  38 SW16      29.64F
MINOT AFB      FAIR      44  24  45 W16       29.62F
GARRISON         N/A     42  24  49 W9        29.68F
WILLISTON      FAIR      49  14  24 W18G26    29.71F
DICKINSON      FAIR      48  22  35 W20       29.76F
HETTINGER      FAIR      49  18  29 W12       29.83F
$$

 *****  OTHER OBSERVATIONS NORTHEAST NORTH DAKOTA  *****

CITY           SKY/WX    TMP DP  RH WIND       PRES   REMARKS
WALHALLA       FAIR      39  30  70 W7        29.57F
LANGDON        FAIR      34  32  93 SW8       29.57F
CAVALIER       FAIR      28  28 100 SE6       29.59F WCI  22
GRAFTON        FAIR      28  28 100 SE8       29.63F WCI  20
CANDO          FAIR      37  27  65 W13       29.61F
FORT TOTTEN      N/A     41  29  62 SW6       29.95S
ROLLA          FAIR      41  25  52 W15G21    29.57F
RUGBY          FAIR      39  27  60 W12       29.62F
 ***** THE ABOVE OBSERVATIONS ARE NON NWS ARE NOT QUALITY
        CONTROLLED AND MAY MIS-REPORT RAIN FOR SNOW...
$$

 *****  OTHER OBSERVATIONS SOUTHEAST NORTH DAKOTA *****

CITY           SKY/WX    TMP DP  RH WIND       PRES   REMARKS
COOPERSTOWN    FAIR      36  30  80 SW13      29.65F
VALLEY CITY    FAIR      34  34 100 SW7       29.69F
OAKES            N/A     36  27  69 SW10      29.73F
GWINNER          N/A     37  28  70 SW16      29.72F
SHEYENNE NWR     N/A     35  29  78 W7        29.95S
BUFFALO          N/A     35  28  73 SE13        N/A
WYNDMERE       NOT AVBL
 ***** THE ABOVE OBSERVATIONS ARE NON NWS ARE NOT QUALITY
       CONTROLLED AND MAY MIS-REPORT RAIN FOR SNOW...
$$

  *****  WEATHER ACROSS NORTHERN MINNESOTA  *****

CITY           SKY/WX    TMP DP  RH WIND       PRES   REMARKS
FLAG ISLAND    CLOUDY    14  10  85 SE8       29.70F WCI   3
WARROAD        CLOUDY    16  12  86 SE8       29.69F WCI   5
ROSEAU         CLOUDY    19  16  86 SE9       29.67F WCI   9
HALLOCK        FAIR      27  25  93 SE13      29.62F WCI  16
THF RVR FALLS  CLOUDY    30  27  88 S10       29.68F WCI  21
HALSTAD        NOT AVBL
FOSSTON        CLOUDY    27  25  93 S10       29.69F WCI  17
BAUDETTE       CLOUDY    16  12  84 SE10      29.73F WCI   4
WASKISH        CLOUDY    16  12  86 SE10      29.73F WCI   3
CROOKSTON      FAIR      28  27  93 S10       29.67F WCI  19
$$
  *****  WEATHER ACROSS CENTRAL AND WEST MINNESOTA  *****

CITY           SKY/WX    TMP DP  RH WIND       PRES   REMARKS
BEMIDJI        CLOUDY    17  15  89 SE8       29.73F WCI   7
PARK RAPIDS    CLOUDY    23  19  85 SE12      29.73F WCI  12
WADENA         CLOUDY    28  25  86 S6        29.74F WCI  22
DETROIT LAKES  FAIR      30  28  93 S5        29.72F
MOORHEAD       FAIR      34  28  80 CALM      29.71F
FERGUS FALLS   FAIR      32  28  86 SW7       29.76F
ELBOW LAKE     FAIR      32  28  86 W5        29.76F
MORRIS MN      FAIR      34  27  75 S7        29.77F
STAPLES        CLOUDY    23  19  86 SE6       29.77F WCI  16
WHEATON        FAIR      36  27  69 S7        29.78F
$$
  *****  WEATHER ELSEWHERE ACROSS MINNESOTA  *****

CITY           SKY/WX    TMP DP  RH WIND       PRES   REMARKS
DULUTH         LGT SNOW  10   7  87 S7        29.84F FOG     WCI  -1
INTRNTL FALLS  LGT SNOW  12   7  80 SE9       29.79F WCI   0
ELY            FLURRIES   9   1  72 CALM      29.82F
CLOQUET        LGT SNOW  12   9  85 SE3       29.85F
BRAINERD       CLOUDY    18  13  80 S8        29.80F WCI   8
HIBBING        FLURRIES  10   7  87 SE6       29.82F WCI   0
ALEXANDRIA     CLOUDY    34  29  82 S8        29.77F
SAINT CLOUD    FAIR      20  15  81 SE8       29.85F WCI  10
MINNEAPOLIS    CLOUDY    21  14  74 SE9       29.92F WCI  11
$$

  *****  WEATHER ACROSS SOUTH DAKOTA  *****

CITY           SKY/WX    TMP DP  RH WIND       PRES   REMARKS
SIOUX FALLS    FAIR      39  30  70 SW6       29.90F
BROOKINGS      FAIR      36  28  73 SW8       29.85F
WATERTOWN      FAIR      36  29  75 S10       29.80F
HURON          FAIR      43  25  49 SW10      29.83F
SISSETON         N/A     42  29  59 SW15G24   29.73F
ABERDEEN       FAIR      36  25  64 SW9       29.78F
MITCHELL       FAIR      45  29  53 SW12      29.88F
PIERRE         FAIR      50  27  40 W6        29.84F
MOBRIDGE       FAIR      50  29  44 W7        29.76F
RAPID CITY     FAIR      53  14  21 S5        29.93F
$$

  *****  SOME WEATHER IN NEARBY STATES *****

CITY           SKY/WX    TMP DP  RH WIND       PRES   REMARKS
GLASGOW MT     FAIR      54  10  17 NW21G29   29.85R
GREAT FALLS MT FAIR      49   3  15 SW21      30.17R
CHEYENNE WY    FAIR      57  10  15 NW8       30.18F
SCOTTSBLUFF NE FAIR      61  15  16 W15       30.06F
OMAHA NE       FAIR      37  25  61 SE8       30.04F
DES MOINES IA  FAIR      31  18  58 SW7       30.05F WCI  24
DAVENPORT IA   CLOUDY    25   5  42 W7        30.08F WCI  17
CHICAGO IL     FAIR      19   7  59 W8        30.02S WCI   9
EAU CLAIRE WI  CLOUDY    15   4  61 SW6       29.96F WCI   6
LA CROSSE WI   CLOUDY    21   5  50 SW8       30.01F WCI  11
$$

  *****  SOME NATIONAL WEATHER *****

CITY           SKY/WX    TMP DP  RH WIND       PRES   REMARKS
LA GUARDIA NY  CLOUDY    43  33  68 W18G29    29.44R
RALEIGH NC     LGT RAIN  48  26  42 NW14G23   29.65R
ATLANTA GA     FAIR      44  28  53 W9        29.93R
NEW ORLEANS LA FAIR      58  40  51 NW7       30.13S
OKLAHOMA CITY  FAIR      46  26  45 SW6       30.24F
ALBUQUERQUE NM FAIR      53   2  12 SW5       30.33F
SALT LAKE CITY FOG       27  25  92 N6        30.47F VSB 1/4 WCI  20
LOS ANGELES CA FAIR      74  35  24 W9        30.04F
BOISE ID       CLOUDY    24  21  88 NW6       30.56F FOG     WCI  17
SEATTLE WA     MOCLDY    45  35  68 W3        30.40F
$$

*** WEATHER ACROSS MANITOBA...SASKATCHEWAN AND ONTARIO ***
                ***ONTARIO***

CITY           SKY/WX    TMP DP  RH WIND       PRES   REMARKS
GERALDTON      MOCLDY    -6 -11  77 E2        29.90F
THUNDER BAY    MOCLDY     3  -2  78 CALM      29.95F
SIOUX LOOKOUT  CLOUDY     1  -4  78 SE7       29.81F WCI -11
TORONTO        MOCLDY    14   5  67 W22G31    29.62R WCI  -4
BIG TROUT LK   CLEAR    -18 -24  76 SE2       29.86F
PICKLE LAKE    MOCLDY    -8 -11  84 S7        29.83F WCI -22
DRYDEN         FLURRIES   7   3  85 SE8       29.77F WCI  -6
KENORA         LGT SNOW  10   7  85 SE14      29.72F VSB 1   WCI  -5
$$
                *** MANITOBA***

CITY           SKY/WX    TMP DP  RH WIND       PRES   REMARKS
BRANDON        MOCLDY    32  27  80 VRB2      29.52F
DAUPHIN        CLEAR     36  28  75 W15       29.52F
ISLAND LAKE    CLOUDY     5   0  78 SE10      29.73  WCI -10
PILOT MOUND      N/A     34  28  80 SW8         N/A
THE PAS        CLOUDY    19  18  93 VRB2      29.54S FOG
THOMPSON       FLURRIES   7   1  78 E5        29.63F WCI  -2
WINNIPEG       MOCLDY    19  18  93 SE15      29.61  WCI   5
LYNN LAKE      LGT SNOW   9   7  92 E6        29.54F WCI  -1
CHURCHILL      PTCLDY   -17 -22  76 S3        29.89S
GILLAM         MOCLDY    -8 -11  84 SE6       29.80F WCI -21
$$
                ***SASKATCHEWAN***

CITY           SKY/WX    TMP DP  RH WIND       PRES   REMARKS
ESTEVAN        CLOUDY    41  28  60 SW10      29.62F
KINDERSLEY     MOCLDY    41  28  60 NW17G25   29.87S
LLOYDMINSTER   CLOUDY    39  30  70 W17       29.82R
PRINCE ALBERT  CLOUDY    37  30  75 NW9       29.66S
REGINA         MOCLDY    37  28  70 W17       29.66R
YORKTON        CLOUDY    37  28  70 W9        29.56F



USA.gov is the U.S. government's official web portal to all federal, state and local government web resources and services.